Location: Frydek-Mistek
(49.6830°N, 18.3330°E)
Time: 10:27:15
(UTC+02:00)

ISS - Pass Details

Date: 26 May 2021
Orbit: 417 x 422 km, 51.6° (Epoch: 13 June)

Event Time Altitude Azimuth Distance (km) Brightness Sun altitude
Rises 23:02:14 0° 288° (WNW) 2,368 0.7 -15.5°
Reaches altitude 10° 23:04:27 10° 278° (W) 1,502 -0.5 -15.7°
Maximum altitude 23:07:30 32° 213° (SSW) 740 -2.8 -15.9°
Enters shadow 23:07:52 31° 199° (SSW) 756 -2.9 -15.9°
